[[{"header":{"parameterUnit":"m.s-1","parameterCategory":1,"la1":30.2991,"la2":30.254,"lo1":-89.0895,"lo2":-89.0444,"dy":0.0017,"dx":0.0017,"nx":28,"ny":28,"refTime":"2024-07-11T03:00:00:Z","depth":0,"parameterNumber":2,"parameterNumberName":"U-component_of_WINDS"},"data":[0,0,0,0,0,0,0,0,0,0,0,0,0,0,0,0,0,0,0,0,0,0,0,0,0,0,0,0,0,0,0,0,0,0,0,0,0,0,0,0,0,0,0,0,0,0,0,0,0,0,0,0,0,0,0,0,0,0,0.2567,0.2569,0,0.2671,0.2672,0.2674,0.2742,0.2742,0.2743,0.2743,0.285,0.2853,0.2855,0,0,0,0,0,0,0,0,0,0,0,0,0,0.2429,0.2431,0.2567,0.2569,0.257,0.2671,0.2673,0.2674,0.2742,0.2742,0.2743,0.2743,0.285,0.2852,0.2855,0,0,0,0,0,0,0,0,0,0,0,0,0,0.2506,0.2432,0.2567,0.2616,0.2621,0.2671,0.2673,0.2674,0.2742,0.2742,0.2743,0.2744,0.2849,0.2852,0.2856,0.2865,0,0,0.2867,0.2869,0,0,0,0,0,0,0,0,0.2502,0.2511,0.2607,0.2613,0.2619,0.2694,0.2663,0.2738,0.2741,0.2696,0.2743,0.2744,0.2798,0.2806,0.2824,0.287,0.2875,0.2867,0.287,0.2871,0.2872,0,0,0,0,0,0,0,0.2496,0.2507,0.2609,0.2609,0.2616,0.2633,0.2645,0.2678,0.2742,0.27,0.2705,0.2716,0.2801,0.282,0.2827,0.2876,0.2867,0.287,0.2873,0.2874,0.2935,0.2935,0,0,0,0,0,0,0.2483,0.2502,0.2605,0.2612,0.2561,0.2635,0.2648,0.2669,0.2742,0.2753,0.2716,0.2719,0.2814,0.2823,0.2831,0.2846,0.2871,0.2875,0.2877,0.2936,0.2935,0.2935,0,0,0,0,0,0,0.248,0.2492,0.2601,0.2558,0.2574,0.2637,0.266,0.2671,0.269,0.2754,0.2766,0.2723,0.2814,0.2826,0.2856,0.2851,0.2876,0.2879,0.2937,0.2936,0.2935,0.2877,0,0,0,0,0,0,0.2476,0.249,0.2494,0.2558,0.2576,0.2624,0.266,0.2673,0.2696,0.2702,0.2764,0.2775,0.2816,0.285,0.286,0.2856,0.2882,0.2937,0.2936,0.2935,0.2879,0.2874,0.2869,0,0,0,0,0,0.247,0.2474,0.2494,0.2506,0.2582,0.2623,0.2634,0.268,0.2695,0.27,0.2741,0.2773,0.285,0.2853,0.2864,0.2862,0.2938,0.2937,0.2935,0.2882,0.2875,0.2869,0,0,0,0,0,0,0.2408,0.2483,0.2506,0.253,0.257,0.2635,0.2642,0.2672,0.2708,0.2712,0.2769,0.2782,0.2807,0.2838,0.2839,0.2874,0.2898,0.2899,0.2853,0.2847,0.2842,0.2834,0.2885,0,0,0,0,0,0.2397,0.2424,0.2488,0.2503,0.2522,0.2578,0.2598,0.2631,0.2674,0.2692,0.2735,0.2776,0.281,0.283,0.2865,0.2885,0.2899,0.2889,0.2884,0.2879,0.2879,0.2891,0.2887,0.293,0.293,0.293,0,0,0.2374,0.2419,0.2432,0.2492,0.2527,0.2553,0.2592,0.2619,0.264,0.2696,0.2727,0.276,0.281,0.2834,0.2847,0.2861,0.287,0.2878,0.2874,0.2876,0.2889,0.2885,0.2881,0.2929,0.293,0.293,0,0,0.2347,0.2383,0.24,0.2433,0.2485,0.2523,0.2526,0.2587,0.2611,0.2643,0.2685,0.2711,0.2768,0.2801,0.2826,0.2811,0.2842,0.2821,0.2794,0.2805,0.2802,0.2799,0.2793,0.279,0.2821,0.2821,0.282,0,0.2312,0.2354,0.2404,0.2429,0.2453,0.2505,0.2522,0.2553,0.2613,0.2629,0.2643,0.2715,0.2753,0.2786,0.2782,0.28,0.2806,0.2813,0.2798,0.2796,0.2794,0.2789,0.2787,0.2818,0.2818,0.2818,0.2819,0,0.2309,0.2337,0.2344,0.2401,0.2427,0.2447,0.25,0.2521,0.2551,0.2587,0.2619,0.2665,0.271,0.272,0.2751,0.2758,0.2764,0.2788,0.2812,0.2786,0.2782,0.2781,0.2813,0.2814,0.2815,0.2816,0,0,0.2244,0.2328,0.233,0.2356,0.2417,0.244,0.2463,0.2506,0.2522,0.2562,0.2582,0.2629,0.2651,0.2679,0.2714,0.2724,0.2708,0.2746,0.2748,0.2736,0.2718,0.2699,0.2695,0.2729,0.2729,0.2729,0.2713,0,0.2225,0.2268,0.2314,0.2341,0.2368,0.2418,0.2438,0.2478,0.2512,0.254,0.2578,0.261,0.2637,0.2654,0.2666,0.2707,0.2705,0.2709,0.2748,0.2749,0.2733,0.2694,0.2674,0.2657,0.2712,0.2712,0.2712,0,0.2209,0.2246,0.2275,0.2333,0.2346,0.2363,0.2406,0.2433,0.2479,0.2503,0.2534,0.2571,0.2597,0.2619,0.2657,0.2658,0.2678,0.27,0.27,0.2705,0.2728,0.2696,0.2653,0.2649,0.271,0.271,0.271,0,0.2157,0.2215,0.224,0.2261,0.2329,0.234,0.2369,0.2416,0.2439,0.2477,0.2492,0.2533,0.2555,0.2586,0.2632,0.2644,0.2665,0.2691,0.2685,0.2684,0.2686,0.2685,0.2644,0.27,0.27,0.27,0.27,0,0.213,0.2146,0.2217,0.2233,0.2252,0.2305,0.2323,0.2356,0.2397,0.242,0.2467,0.2487,0.2548,0.2576,0.2613,0.2638,0.2648,0.2668,0.2677,0.2663,0.266,0.2675,0.2677,0.27,0.27,0.27,0.27,0,0.2076,0.2124,0.2155,0.2217,0.2233,0.2244,0.2298,0.2315,0.2352,0.238,0.239,0.2448,0.2483,0.2533,0.2584,0.2609,0.2628,0.2644,0.2612,0.2617,0.2608,0.2608,0.2574,0.2572,0.263,0.263,0.2629,0,0.2055,0.2068,0.2132,0.215,0.2178,0.2207,0.2231,0.2283,0.2306,0.2359,0.2369,0.2408,0.2441,0.2495,0.2542,0.2581,0.2597,0.2583,0.2603,0.2588,0.2596,0.2594,0.2595,0.2577,0.2576,0.2576,0.2575,0,0.2013,0.2036,0.2068,0.2108,0.2134,0.2169,0.2205,0.2218,0.2278,0.2301,0.2338,0.2363,0.2415,0.2452,0.2497,0.2528,0.2561,0.2568,0.2569,0.2554,0.2534,0.2543,0.2597,0.2569,0.2569,0.257,0.257,0.257,0.1974,0.1988,0.2034,0.2068,0.2101,0.2134,0.2153,0.2192,0.2223,0.2268,0.2298,0.2332,0.2378,0.2442,0.2471,0.2498,0.2512,0.2513,0.2514,0.2513,0.2507,0.2531,0.2507,0.2507,0.2508,0.2508,0.2508,0,0.1933,0.1966,0.1996,0.2045,0.2072,0.2101,0.2143,0.2164,0.2193,0.2233,0.2265,0.2306,0.2342,0.2392,0.2432,0.2445,0.2461,0.2453,0.2452,0.2459,0.2493,0.2488,0.2439,0.2439,0.2439,0.2439,0.2439,0.2439,0.1915,0.1939,0.1968,0.2009,0.2043,0.2076,0.2097,0.2128,0.216,0.2203,0.2234,0.2266,0.231,0.2353,0.2388,0.2402,0.2414,0.2401,0.2419,0.245,0.2456,0.2462,0.2458,0.2404,0.2404,0.2383,0.2382,0.2382]},{"header":{"parameterUnit":"m.s-1","parameterCategory":1,"la1":30.2991,"la2":30.254,"lo1":-89.0895,"lo2":-89.0444,"dy":0.0017,"dx":0.0017,"nx":28,"ny":28,"refTime":"2024-07-11T03:00:00:Z","depth":0,"parameterNumber":3,"parameterNumberName":"V-component_of_WINDS"},"data":[0,0,0,0,0,0,0,0,0,0,0,0,0,0,0,0,0,0,0,0,0,0,0,0,0,0,0,0,0,0,0,0,0,0,0,0,0,0,0,0,0,0,0,0,0,0,0,0,0,0,0,0,0,0,0,0,0,0,1.0206,1.0205,0,1.0183,1.0183,1.0183,1.0191,1.0191,1.0192,1.0192,1.0168,1.0166,1.0165,0,0,0,0,0,0,0,0,0,0,0,0,0,1.0253,1.0252,1.0206,1.0205,1.0205,1.0183,1.0183,1.0183,1.0191,1.0192,1.0192,1.0193,1.0168,1.0167,1.0165,0,0,0,0,0,0,0,0,0,0,0,0,0,1.0232,1.0252,1.0206,1.0207,1.0207,1.0183,1.0183,1.0183,1.0191,1.0192,1.0192,1.0193,1.0168,1.0167,1.0165,1.0139,0,0,1.016,1.0159,0,0,0,0,0,0,0,0,1.0233,1.023,1.0207,1.0207,1.0206,1.0191,1.0191,1.0168,1.0191,1.0197,1.0192,1.0193,1.0175,1.0172,1.0166,1.0138,1.0137,1.016,1.0159,1.0158,1.0157,0,0,0,0,0,0,0,1.0234,1.0231,1.0197,1.0206,1.0206,1.0207,1.0205,1.0186,1.0181,1.0196,1.0197,1.0194,1.0175,1.0168,1.0166,1.0137,1.016,1.0158,1.0157,1.0156,1.0083,1.0083,0,0,0,0,0,0,1.0236,1.0232,1.0198,1.0196,1.0222,1.0206,1.0203,1.0195,1.0182,1.0181,1.0193,1.0195,1.0171,1.0168,1.0165,1.0132,1.0158,1.0156,1.0155,1.0084,1.0083,1.0082,0,0,0,0,0,0,1.0237,1.0233,1.0198,1.0214,1.021,1.0204,1.0195,1.0194,1.0188,1.018,1.0179,1.0188,1.0171,1.0167,1.0145,1.0131,1.0156,1.0154,1.0085,1.0084,1.0083,1.0067,0,0,0,0,0,0,1.0239,1.0233,1.0224,1.0214,1.0209,1.018,1.0194,1.0193,1.0185,1.0186,1.0174,1.0173,1.0171,1.0148,1.0143,1.0129,1.0153,1.0087,1.0085,1.0083,1.0069,1.0065,1.0062,0,0,0,0,0,1.024,1.0221,1.0224,1.0219,1.0198,1.0179,1.0176,1.0175,1.0184,1.0174,1.0169,1.0173,1.0134,1.0145,1.0141,1.0126,1.0087,1.0085,1.0083,1.007,1.0066,1.0063,0,0,0,0,0,0,1.0229,1.0219,1.0223,1.0199,1.019,1.018,1.0168,1.0171,1.0159,1.016,1.0159,1.0156,1.0133,1.0128,1.014,1.0099,1.0112,1.0109,1.0103,1.0099,1.0096,1.0097,1.0151,0,0,0,0,0,1.0224,1.021,1.0203,1.0183,1.0178,1.0174,1.0166,1.0166,1.0156,1.0152,1.0145,1.0134,1.0119,1.0109,1.0095,1.0069,1.0065,1.0056,1.0053,1.005,1.0047,1.003,1.0026,1.0076,1.0076,1.0076,0,0,1.0213,1.0206,1.0198,1.018,1.0173,1.0158,1.017,1.0154,1.0142,1.0149,1.0127,1.0122,1.011,1.0084,1.0073,1.0079,1.0033,1.0048,1.0046,1.0044,1.0028,1.0023,1.0019,1.0074,1.0074,1.0075,0,0,1.0185,1.018,1.0161,1.0154,1.0143,1.014,1.0135,1.0125,1.0122,1.01,1.0104,1.009,1.0065,1.0055,1.0047,1.0015,1.0018,1.001,0.9993,0.9977,0.9973,0.9969,0.9956,0.9951,1.0008,1.0007,1.0007,0,1.0173,1.0151,1.0152,1.0135,1.0126,1.0132,1.0113,1.0105,1.009,1.0083,1.009,1.0058,1.005,1.0022,1.0014,1.0008,1.0001,1.0011,0.9974,0.997,0.9967,0.9954,0.9949,1.0006,1.0007,1.0007,1.0007,0,1.0135,1.012,1.0106,1.0091,1.0082,1.0064,1.006,1.005,1.0051,1.0047,1.0024,1.0015,0.9998,0.9992,0.9993,0.9963,0.9967,0.9974,0.9986,0.9961,0.9948,0.9944,1.0005,1.0005,1.0006,1.0006,0,0,1.0099,1.0084,1.0079,1.0072,1.0059,1.0047,1.0029,1.0013,1.0003,0.9992,0.9976,0.9954,0.996,0.995,0.995,0.9936,0.9908,0.9945,0.9944,0.9936,0.9873,0.9866,0.986,0.9911,0.991,0.991,0.9873,0,1.0069,1.0037,1.0037,1.0007,0.9992,0.9997,0.998,0.997,0.9966,0.9952,0.9947,0.993,0.994,0.9935,0.9921,0.9915,0.9895,0.9918,0.9894,0.9893,0.9895,0.9854,0.9848,0.9814,0.9868,0.9868,0.9867,0,1.0029,1.0016,0.9985,0.9974,0.9967,0.9953,0.9937,0.9924,0.9912,0.991,0.9899,0.9901,0.9881,0.9895,0.9866,0.9881,0.9871,0.9867,0.9865,0.9861,0.9877,0.9847,0.9803,0.9797,0.986,0.986,0.9861,0,1.0003,0.9979,0.9956,0.995,0.9937,0.9926,0.992,0.9909,0.9899,0.9885,0.9878,0.9863,0.9853,0.984,0.9837,0.9848,0.9807,0.9822,0.9803,0.9803,0.9793,0.9793,0.9744,0.979,0.979,0.979,0.979,0,0.9968,0.9948,0.9944,0.993,0.9908,0.9907,0.9885,0.9879,0.9869,0.9853,0.9857,0.9842,0.9839,0.9823,0.982,0.9795,0.9792,0.9788,0.9787,0.9787,0.9787,0.9779,0.978,0.9789,0.9789,0.979,0.979,0,0.9935,0.9932,0.9907,0.9896,0.9893,0.9877,0.9867,0.9853,0.9849,0.9829,0.9824,0.9817,0.9798,0.9794,0.9772,0.977,0.9739,0.9742,0.9743,0.9743,0.9724,0.9725,0.9666,0.9658,0.9711,0.9711,0.971,0,0.9911,0.9896,0.9884,0.9873,0.9867,0.985,0.984,0.9839,0.9828,0.9812,0.98,0.9781,0.9766,0.9735,0.9728,0.971,0.9711,0.9692,0.9708,0.9707,0.9708,0.9708,0.9705,0.9688,0.9687,0.9687,0.9686,0,0.987,0.9869,0.9854,0.9839,0.9826,0.9814,0.9802,0.9793,0.979,0.9777,0.9758,0.9746,0.9723,0.9703,0.9686,0.9678,0.9681,0.9682,0.9676,0.9674,0.9674,0.9672,0.9733,0.9682,0.9683,0.9683,0.9683,0.9683,0.984,0.9825,0.9814,0.9797,0.9788,0.9776,0.9762,0.9756,0.974,0.9722,0.9722,0.97,0.9687,0.9664,0.9655,0.9637,0.9643,0.9635,0.9633,0.963,0.9627,0.9679,0.9634,0.9634,0.9634,0.9634,0.9634,0,0.9796,0.9789,0.9774,0.9757,0.9743,0.9748,0.9735,0.9722,0.9703,0.9692,0.9677,0.9653,0.9635,0.9626,0.9606,0.9594,0.9594,0.9589,0.9588,0.9586,0.9625,0.963,0.9588,0.9588,0.9588,0.9588,0.9588,0.9588,0.9772,0.9748,0.9745,0.9716,0.9709,0.9688,0.968,0.9668,0.9659,0.9633,0.9617,0.9612,0.96,0.9581,0.9563,0.9561,0.9552,0.9545,0.9543,0.9579,0.9584,0.9588,0.9593,0.9544,0.9544,0.9506,0.9506,0.9505]}]]